{"data":{"norad_id":59805,"intl_designator":"2024-094A","name":"2024-094A","alt_names":[],"object_type":"PAYLOAD","status":"ACTIVE","operator":null,"country":"PRC","launch_date":"2024-05-20","launch_site_code":"TAISC","launch_vehicle":null,"mission":null,"orbit_class":"UNKNOWN","rcs_meters":null,"size_class":null,"mass_kg":null,"dimensions":null,"purposes":[],"wikipedia_slug":null,"has_3d_model":false,"image_url":null,"decayed_at":null,"tle_current":{"epoch":"2026-09-22T22:30:51.242976Z","epoch_age_seconds":62095,"freshness":"FRESH","line1":"1 59805U 24094A   26265.93809309  .00004351  00000+0  22377-3 0  9994","line2":"2 59805  97.3785 334.1806 0001491 161.8996 198.2290 15.16958001129984","mean_motion":15.16958001,"eccentricity":0.0001491,"inclination_deg":97.3785,"raan_deg":334.1806,"arg_perigee_deg":161.8996,"mean_anomaly_deg":198.229,"bstar":0.00022377,"rev_number":12998,"period_min":94.926820587698,"perigee_km":514.01285848597,"apogee_km":516.06840405562,"semimajor_km":6893.1776312708,"source":"CELESTRAK","updated_at":"2026-09-23T09:00:19.588820Z"}}}